Location: Alpha Ridge Park
(39.3209°N, 76.9128°W)
Time: 16:20:49
(UTC-04:00)

N. Korean satellite - Visible Passes

Search period start: 14 October 2019 00:00
Search period end: 24 October 2019 00:00
Orbit: 455 x 508 km, 97.2° (Epoch: 14 October)

Date Brightness Start Highest point End Pass type
(mag) Time Alt. Az. Time Alt. Az. Time Alt. Az.
14 Oct 8.8 06:32:32 10° NNE 06:35:46 31° E 06:39:01 10° SSE visible
15 Oct 10.0 06:08:09 10° NE 06:10:21 15° E 06:12:34 10° SE visible
16 Oct 10.5 19:25:27 10° WSW 19:26:25 11° W 19:27:23 10° WNW visible
17 Oct 7.5 06:49:46 10° NNE 06:53:19 56° E 06:56:54 10° S visible
17 Oct 9.4 18:58:10 10° SSW 19:00:57 23° W 19:03:45 10° NW visible
18 Oct 9.2 06:24:54 10° NE 06:27:58 26° E 06:31:03 10° SSE visible
19 Oct 10.3 06:00:53 10° ENE 06:02:32 13° E 06:04:11 10° ESE visible
20 Oct 10.1 19:16:42 10° SW 19:18:32 14° W 19:20:22 10° WNW visible
21 Oct 8.0 06:42:01 10° NNE 06:45:31 44° E 06:49:02 10° S visible
21 Oct 8.9 18:50:04 10° SSW 18:53:04 29° W 18:56:08 10° NW visible
22 Oct 9.6 06:17:18 10° NE 06:20:08 21° E 06:22:58 10° SE visible
23 Oct 10.6 05:54:12 10° E 05:54:39 10° E 05:55:05 10° E visible
